Location: Al Mulaqqa?ah
(24.1833°N, 32.8833°E)
Time: 11:45:45
(UTC+00:00)

Lacrosse 5 rocket - Pass Details

Date: 26 September 2021
Orbit: 463 x 629 km, 57.0° (Epoch: 23 October)

Event Time Altitude Azimuth Distance (km) Brightness Sun altitude
Rises 17:49:03 0° 324° (NW) 2,865 5.6 -29.9°
Reaches altitude 10° 17:51:23 10° 324° (NW) 1,939 4.7 -30.4°
Enters shadow 17:53:19 25° 322° (NW) 1,196 3.4 -30.9°
